This is the latest recevied weather packets stored in our database for station/object KF7PIZ. If no packets are shown the sender has not sent any weather packets the latest 1 day(s).
| Time | Temp. | Humidity | Pressure | Rain* | Wind** | Luminosity | Snow |
|---|---|---|---|---|---|---|---|
| 1778030478 | 25.56° C | 28% | 1012.3 hPa | 0 mm | - | 147 W/m² | - |
| 1778030176 | 25° C | 28% | 1012.3 hPa | 0 mm | - | 167 W/m² | - |
| 1778029872 | 27.22° C | 28% | 1012.3 hPa | 0 mm | - | 195 W/m² | - |
| 1778029571 | 27.22° C | 27% | 1012.2 hPa | 0 mm | - | 182 W/m² | - |
| 1778029268 | 25.56° C | 27% | 1012 hPa | 0 mm | - | 207 W/m² | - |
| 1778028965 | 26.67° C | 26% | 1012.4 hPa | 0 mm | - | 215 W/m² | - |
| 1778028661 | 25° C | 31% | 1012.2 hPa | 0 mm | - | 229 W/m² | - |
| 1778028358 | 22.78° C | 31% | 1012.2 hPa | 0 mm | - | 149 W/m² | - |
| 1778028055 | 21.67° C | 34% | 1012.5 hPa | 0 mm | - | 42 W/m² | - |
| 1778027751 | 22.78° C | 38% | 1012.3 hPa | 0 mm | - | 44 W/m² | - |
| 1778027143 | 21.67° C | 34% | 1012.1 hPa | 0 mm | - | 52 W/m² | - |
| 1778026536 | 22.78° C | 30% | 1012.1 hPa | 0 mm | - | 43 W/m² | - |
| 1778024114 | 23.89° C | 37% | 1012.4 hPa | 0 mm | - | 72 W/m² | - |
| 1778023509 | 23.33° C | 36% | 1012.4 hPa | 0 mm | - | 62 W/m² | - |
| 1778021692 | 21.67° C | 41% | 1012.8 hPa | 0 mm | - | 103 W/m² | - |
| 1778021085 | 21.11° C | 43% | 1012.9 hPa | 0 mm | - | 95 W/m² | - |
| 1778019872 | 20° C | 48% | 1013.2 hPa | 0 mm | - | 319 W/m² | - |
| 1778018055 | 21.67° C | 42% | 1013.6 hPa | 0 mm | - | 174 W/m² | - |
| 1778017147 | 20° C | 47% | 1013.9 hPa | 0 mm | - | 247 W/m² | - |
| 1778015934 | 18.89° C | 48% | 1014.1 hPa | 0 mm | - | 821 W/m² | - |
| 1778014420 | 18.89° C | 49% | 1014.1 hPa | 0 mm | - | 825 W/m² | - |
| 1778012297 | 20° C | 48% | 1014.5 hPa | 0 mm | - | 249 W/m² | - |
| 1778011693 | 19.44° C | 52% | 1014.4 hPa | 0 mm | - | 827 W/m² | - |
| 1778009575 | 18.89° C | 53% | 1014.7 hPa | 0 mm | - | 740 W/m² | - |
| 1778009273 | 18.33° C | 56% | 1014.6 hPa | 0 mm | - | 746 W/m² | - |
* Rain latest hour (hover to see other rain measurements)
** Current wind speed in m/s (hover to see current wind gust speed)